Regional Weather Roundup
Issued by NWS

Home | Current Version | Previous Version | Text Only | Print | Product List | Glossary Off
Versions: 1 2 3 4 5 6 7 8 9 10 11 12 13 14 15 16 17 18 19 20 21 22 23 24 25 26 27 28 29 30 31 32 33 34 35 36 37 38 39 40 41 42 43 44 45 46 47 48 49 50

000
ASUS43 KMKX 201411
RWRWI

WISCONSIN REGIONAL WEATHER ROUNDUP
NATIONAL WEATHER SERVICE MILWAUKEE/SULLIVAN WI
900 AM CDT MON OCT 20 2014

NOTE: "FAIR" INDICATES FEW OR NO CLOUDS BELOW 12,000 FEET WITH NO
SIGNIFICANT WEATHER AND/OR OBSTRUCTIONS TO VISIBILITY.

WIZ001-002-006>008-014>016-023>028-201500-
NORTHWEST WISCONSIN

CITY           SKY/WX    TMP DP  RH WIND       PRES   REMARKS
SUPERIOR ARPT  CLOUDY    46  43  90 NW6       29.96R
ASHLAND        CLOUDY    49  41  74 NW6       29.93R
HAYWARD        CLOUDY    44  42  93 CALM      29.94R
SIREN          SUNNY     43  42  97 NW5       29.96R
CUMBERLAND     SUNNY     45  41  87 NW7       29.95R
RICE LAKE      SUNNY     45  41  86 W6        29.96R
CHETEK         SUNNY     46  42  86 NW5       29.95R
LADYSMITH      MOSUNNY   47  43  87 NW10      29.94R
EAU CLAIRE     SUNNY     49  42  77 NW8       29.94R
MENOMONIE      SUNNY     49  43  78 W8        29.95R
NEW RICHMOND   SUNNY     46  44  91 NW5       29.97R
OSCEOLA        SUNNY     42  42 100 CALM      30.01R
$$

WIZ003>005-009-010-017-018-201500-
NORTH CENTRAL WISCONSIN

CITY           SKY/WX    TMP DP  RH WIND       PRES   REMARKS
MANITOWISH WTR CLOUDY    44  44  99 N3        29.88R
ARBOR VITAE    CLOUDY    46  43  90 NW7       29.88R
WOODRUFF       CLOUDY    46  43  90 NW7       29.88R
RHINELANDER    CLOUDY    44  43  96 N3        29.88R
EAGLE RIVER    DRIZZLE   44  44 100 NW3       29.86R
LAND O LAKES   LGT RAIN  44  43  97 NW5       29.87S
PHILLIPS       PTSUNNY   44  41  91 NW6       29.90R
TOMAHAWK       CLOUDY    43  41  93 CALM      29.89R
MEDFORD        CLOUDY    44  41  91 NW7       29.90R
MERRILL        CLOUDY    46  43  89 N3        29.88R
$$

WIZ029-030-035-036-043>047-201500-
CENTRAL WISCONSIN

CITY           SKY/WX    TMP DP  RH WIND       PRES   REMARKS
WAUSAU         CLOUDY    46  42  86 NW7       29.87R
MOSINEE        CLOUDY    46  45  93 NW9       29.89R
MARSHFIELD     SUNNY     46  42  86 NW8       29.90R
STEVENS POINT  MOSUNNY   43  40  89 CALM      29.88S
WAUPACA        PTSUNNY   50  45  81 NW9G16    29.88R
WAUTOMA        CLOUDY    49  43  80 NW12      29.88R
WISC RAPIDS    SUNNY     49  42  77 NW9       29.91R
CAMP DOUGLAS   SUNNY     50  48  93 NW8       29.91R
$$

WIZ011>013-019>022-031-037>040-048>050-201500-
NORTHEAST WISCONSIN

CITY           SKY/WX    TMP DP  RH WIND       PRES   REMARKS
ANTIGO         CLOUDY    44  43  97 NW6       29.87R FOG
SHAWANO        CLOUDY    48  46  90 CALM      29.86R
OCONTO         CLOUDY    47  45  93 NW3       29.84R
STURGEON BAY   CLOUDY    48  43  81 N8        29.84R
GREEN BAY      CLOUDY    50  44  80 NW9       29.84R
MANITOWOC      CLOUDY    50  46  86 N10       29.83R
APPLETON       PTSUNNY   46  45  93 NW13      29.85R
CLINTONVILLE   CLOUDY    46  43  87 NW6       29.86R
OSHKOSH        CLOUDY    49  44  83 NW9       29.85R
$$

WIZ032>034-041-042-053>061-201500-
SOUTHWEST WISCONSIN

CITY           SKY/WX    TMP DP  RH WIND       PRES   REMARKS
LA CROSSE      SUNNY     50  45  83 CALM      29.94R
SPARTA         SUNNY     51  42  70 NW6       29.93S
VIROQUA        SUNNY     50  43  77 NW8       29.93R
BOSCOBEL       SUNNY     52  44  74 W5        29.94R
PRAIRIE DU CHI SUNNY     51  42  72 NW6G17    29.95R
PLATTEVILLE    SUNNY     51  44  77 NW10      29.92R
$$

WIZ056-057-062-063-064-067-068-201500-
SOUTH CENTRAL WISCONSIN

CITY           SKY/WX    TMP DP  RH WIND       PRES   REMARKS
REEDSBURG      SUNNY     50  43  75 NW7       29.90R
BARABOO/DELLS  SUNNY     50  41  71 NW8       29.90R
LONE ROCK      SUNNY     56  42  59 NW6       29.91R
MINERAL POINT  SUNNY     52  43  71 N12       29.91R
MADISON        MOSUNNY   52  43  71 N12       29.88R
MIDDLETON      SUNNY     53  43  69 NW9G17    29.89R
WATERTOWN      MOSUNNY   48  46  93 NW8       29.86R
MONROE         SUNNY     50  45  81 NW10G16   29.88R
JANESVILLE     SUNNY     52  46  82 NW12      29.85R
$$

WIZ051-052-058>065-066-070>072-201500-
SOUTHEAST WISCONSIN

CITY           SKY/WX    TMP DP  RH WIND       PRES   REMARKS
MILWAUKEE      MOSUNNY   52  44  74 NW14      29.82R
WAUKESHA       MOSUNNY   46  43  87 NW12      29.83R
MILWAUKEE/TIMM NOT AVBL
RACINE         MOSUNNY   50  43  77 W10       29.83R
BURLINGTON     SUNNY     49  44  83 NW16      29.83R
KENOSHA        PTSUNNY   50  44  80 NW10      29.82R
FOND DU LAC    CLOUDY    50  44  80 NW14      29.85R
SHEBOYGAN      PTSUNNY   49  43  80 NW12      29.83R
WEST BEND      PTSUNNY   46  43  87 NW13G21   29.83R
JUNEAU         MOSUNNY   47  44  87 NW10G16   29.87R
$$

LSZ147-162-201500-
LAKE SUPERIOR

STATION/POSITION TIME  TEMP    WIND        PRES    WAVE
                       AIR SEA DIR/SP/G            HT/PER
                 (UTC) (F)     (DEG/KT/KT) (MB)    (FT/S)
W MID LAKE BUOY  1350   47 46  320/  8/  8 1012.4R   1/ 3
DEVILS ISLAND    1400   49     320/ 11/ 12 1013.5R
PORT WING        1300   49     300/ 13/ 16 1013.5R
SAXON HARBOR     1300   51     320/  8/  9 1012.2R
$$

LMZ867-665-643>646-201500-
LAKE MICHIGAN

STATION/POSITION TIME  TEMP    WIND        PRES    WAVE
                       AIR SEA DIR/SP/G            HT/PER
                 (UTC) (F)     (DEG/KT/KT) (MB)    (FT/S)
CHAMBERS ISLAND  1300   50     330/  8/ 11 1009.8R
N MID LAKE BUOY  1350   49 52  340/ 17/ 19 1009.2R   3/ 6
NORTHPORT PIER   1300   50     340/ 14/ 17 1009.1R
KEWAUNEE LAKESHO 1300   47     300/  6/  7 1008.3R
SHEBOYGAN LAKESH 1400   51 50  330/ 11/ 13 1010.2R
PORT WASHINGTON  1340   51     300/ 11/ 15 1009.8R
ATWATER BUOY     1400   52     290/ 12/ 16 1010.6R
MILWAUKEE LAKESH 1300   50     310/ 12/ 16   N/A
S MID LAKE BUOY  1350   53 55  280/  8/ 10 1009.6R   3/ 6
KENOSHA   LAKESH 1400   50     290/ 12/ 16 1009.8R
$$

TC  - TEMPERATURE IN CELSIUS
VSB - VISIBILITY IN STATUTE MILES
WCI - WIND CHILL INDEX
HX  - HEAT INDEX



USA.gov is the U.S. government's official web portal to all federal, state and local government web resources and services.